When you browse on this site, cookies collect data to enhance your experience and personalize the content and advertising you see.
Visit our Privacy Policy to learn more. By continuing to use the site, you agree to this use of cookies and data.
  • In Schweiz
  • Länderverzeichnis
  • Für 7 Tage
  • Wassertemperatur
  • Satellitenkarten
  • Wetterkarte
  • Widgets
  • user-avatar
    Anmelden

    Stündliche Wetter Kirov

    Heute, 20 Februar, Mittwoch

    Zeit Temperatur Niederschläge Wind Luftdruck Luftfeuchtigkeit
    00:00 -1°C° 0 mm 1 m/S 763 mmHg 64%
    01:00 -1°C° 0 mm 1 m/S 763 mmHg 63%
    02:00 -1°C° 0 mm 1 m/S 763 mmHg 61%
    03:00 -1°C° 0 mm 1 m/S 762 mmHg 58%
    04:00 -3°C° 0 mm 2 m/S 762 mmHg 57%
    05:00 -3°C° 0 mm 2 m/S 761 mmHg 56%
    06:00 -3°C° 0 mm 2 m/S 761 mmHg 55%
    07:00 -2°C° 0 mm 2 m/S 761 mmHg 53%
    08:00 -2°C° 0 mm 2 m/S 760 mmHg 51%
    09:00 -1°C° 0 mm 3 m/S 760 mmHg 49%
    10:00 0°C° 0 mm 3 m/S 760 mmHg 47%
    11:00 +1°C° 0 mm 3 m/S 759 mmHg 44%
    12:00 +3°C° 0 mm 3 m/S 759 mmHg 42%
    13:00 +3°C° 0 mm 4 m/S 759 mmHg 45%
    14:00 +4°C° 0 mm 4 m/S 758 mmHg 49%
    15:00 +4°C° 0 mm 4 m/S 758 mmHg 52%
    16:00 +3°C° 0 mm 4 m/S 757 mmHg 59%
    17:00 +2°C° 0 mm 3 m/S 757 mmHg 65%
    18:00 +1°C° 0 mm 3 m/S 757 mmHg 71%
    19:00 +1°C° 0 mm 3 m/S 757 mmHg 74%
    20:00 +1°C° 0 mm 3 m/S 756 mmHg 76%
    21:00 0°C° 0 mm 3 m/S 756 mmHg 79%
    22:00 0°C° 0 mm 3 m/S 756 mmHg 80%
    23:00 0°C° 0 mm 3 m/S 756 mmHg 82%

    Morgen, 21 Februar, Donnerstag

    Zeit Temperatur Niederschläge Wind Luftdruck Luftfeuchtigkeit
    00:00 0°C° 0 mm 3 m/S 756 mmHg 83%
    01:00 0°C° 0 mm 3 m/S 755 mmHg 87%
    02:00 0°C° 0 mm 3 m/S 755 mmHg 90%
    03:00 -1°C° 0 mm 4 m/S 755 mmHg 93%
    04:00 -1°C° 0 mm 4 m/S 755 mmHg 94%
    05:00 0°C° 0 mm 4 m/S 754 mmHg 94%
    06:00 0°C° 0 mm 5 m/S 754 mmHg 95%
    07:00 +1°C° 0 mm 5 m/S 754 mmHg 94%
    08:00 +1°C° 0 mm 5 m/S 754 mmHg 93%
    09:00 +1°C° 0 mm 6 m/S 754 mmHg 92%
    10:00 +2°C° 0.2 mm 6 m/S 753 mmHg 91%
    11:00 +2°C° 0.2 mm 6 m/S 753 mmHg 90%
    12:00 +2°C° 0.2 mm 5 m/S 753 mmHg 88%
    13:00 +3°C° 0.1 mm 6 m/S 752 mmHg 79%
    14:00 +3°C° 0.1 mm 7 m/S 752 mmHg 69%
    15:00 +4°C° 0.1 mm 7 m/S 752 mmHg 59%
    16:00 +3°C° 0.1 mm 7 m/S 752 mmHg 61%
    17:00 +3°C° 0.1 mm 7 m/S 752 mmHg 63%
    18:00 +2°C° 0.1 mm 7 m/S 752 mmHg 66%
    19:00 -1°C° 0.2 mm 7 m/S 753 mmHg 63%
    20:00 -2°C° 0.2 mm 7 m/S 753 mmHg 61%
    21:00 -4°C° 0.2 mm 7 m/S 754 mmHg 59%
    22:00 -6°C° 0 mm 7 m/S 754 mmHg 59%
    23:00 -5°C° 0 mm 6 m/S 755 mmHg 58%

    übermorgen, 22 Februar, Freitag

    Zeit Temperatur Niederschläge Wind Luftdruck Luftfeuchtigkeit
    00:00 -5°C° 0 mm 6 m/S 755 mmHg 58%
    01:00 -5°C° 0 mm 6 m/S 755 mmHg 57%
    02:00 -5°C° 0 mm 6 m/S 756 mmHg 56%
    03:00 -5°C° 0 mm 6 m/S 756 mmHg 55%
    04:00 -5°C° 0 mm 5 m/S 756 mmHg 55%
    05:00 -5°C° 0 mm 5 m/S 756 mmHg 56%
    06:00 -5°C° 0 mm 5 m/S 756 mmHg 57%
    07:00 -5°C° 0 mm 5 m/S 756 mmHg 56%
    08:00 -5°C° 0 mm 5 m/S 756 mmHg 55%
    09:00 -5°C° 0 mm 6 m/S 756 mmHg 55%
    10:00 -4°C° 0 mm 6 m/S 756 mmHg 53%
    11:00 -3°C° 0 mm 6 m/S 756 mmHg 51%
    12:00 -3°C° 0 mm 6 m/S 756 mmHg 49%
    13:00 -2°C° 0 mm 5 m/S 756 mmHg 49%
    14:00 -2°C° 0 mm 5 m/S 755 mmHg 49%
    15:00 -1°C° 0 mm 5 m/S 755 mmHg 49%
    16:00 -2°C° 0 mm 4 m/S 755 mmHg 54%
    17:00 -1°C° 0 mm 3 m/S 755 mmHg 59%
    18:00 0°C° 0 mm 1 m/S 755 mmHg 64%
    19:00 -2°C° 0.2 mm 2 m/S 755 mmHg 69%
    20:00 -4°C° 0.2 mm 3 m/S 755 mmHg 75%
    21:00 -4°C° 0.2 mm 3 m/S 756 mmHg 81%
    22:00 -4°C° 0.6 mm 4 m/S 756 mmHg 83%
    23:00 -6°C° 0.6 mm 5 m/S 756 mmHg 86%

    23 Februar, Samstag

    Zeit Temperatur Niederschläge Wind Luftdruck Luftfeuchtigkeit
    00:00 -6°C° 0.6 mm 6 m/S 756 mmHg 89%
    01:00 -6°C° 0.9 mm 6 m/S 756 mmHg 90%
    02:00 -8°C° 0.9 mm 6 m/S 756 mmHg 91%
    03:00 -8°C° 0.9 mm 6 m/S 755 mmHg 92%
    04:00 -8°C° 0.9 mm 6 m/S 755 mmHg 93%
    05:00 -8°C° 0.9 mm 7 m/S 755 mmHg 93%
    06:00 -8°C° 0.9 mm 7 m/S 755 mmHg 94%
    07:00 -8°C° 0.5 mm 7 m/S 756 mmHg 93%
    08:00 -7°C° 0.5 mm 7 m/S 756 mmHg 93%
    09:00 -7°C° 0.5 mm 7 m/S 756 mmHg 93%
    10:00 -5°C° 0.6 mm 6 m/S 756 mmHg 94%
    11:00 -4°C° 0.6 mm 6 m/S 756 mmHg 95%
    12:00 -4°C° 0.6 mm 5 m/S 756 mmHg 96%
    13:00 -2°C° 0.9 mm 5 m/S 757 mmHg 97%
    14:00 -2°C° 0.9 mm 4 m/S 757 mmHg 98%
    15:00 -1°C° 0.9 mm 4 m/S 757 mmHg 99%
    16:00 -2°C° 0.5 mm 4 m/S 757 mmHg 98%
    17:00 -1°C° 0.5 mm 3 m/S 758 mmHg 97%
    18:00 -1°C° 0.5 mm 3 m/S 758 mmHg 97%
    19:00 -1°C° 0.2 mm 3 m/S 758 mmHg 96%
    20:00 -2°C° 0.2 mm 4 m/S 759 mmHg 96%
    21:00 -3°C° 0.2 mm 4 m/S 759 mmHg 95%
    22:00 -2°C° 0 mm 3 m/S 759 mmHg 95%
    23:00 -2°C° 0 mm 3 m/S 759 mmHg 95%

    24 Februar, Sonntag

    Zeit Temperatur Niederschläge Wind Luftdruck Luftfeuchtigkeit
    00:00 -4°C° 0 mm 3 m/S 759 mmHg 95%
    01:00 -4°C° 0 mm 3 m/S 760 mmHg 95%
    02:00 -4°C° 0 mm 3 m/S 760 mmHg 95%
    03:00 -3°C° 0 mm 2 m/S 760 mmHg 95%
    04:00 -3°C° 0 mm 2 m/S 760 mmHg 95%
    05:00 -3°C° 0 mm 2 m/S 760 mmHg 95%
    06:00 -3°C° 0 mm 2 m/S 761 mmHg 95%
    07:00 -3°C° 0 mm 2 m/S 761 mmHg 95%
    08:00 -3°C° 0 mm 2 m/S 761 mmHg 95%
    09:00 -3°C° 0 mm 2 m/S 762 mmHg 95%
    10:00 -3°C° 0.6 mm 2 m/S 762 mmHg 95%
    11:00 0°C° 0.6 mm 1 m/S 762 mmHg 96%
    12:00 0°C° 0.6 mm 1 m/S 762 mmHg 97%
    13:00 0°C° 0.5 mm 1 m/S 762 mmHg 97%
    14:00 -2°C° 0.5 mm 2 m/S 762 mmHg 98%
    15:00 -1°C° 0.5 mm 2 m/S 762 mmHg 98%
    16:00 -2°C° 0.3 mm 2 m/S 762 mmHg 97%
    17:00 -2°C° 0.3 mm 2 m/S 762 mmHg 97%
    18:00 -2°C° 0.3 mm 2 m/S 762 mmHg 96%
    19:00 -2°C° 0.2 mm 2 m/S 762 mmHg 96%
    20:00 -2°C° 0.2 mm 2 m/S 763 mmHg 96%
    21:00 -2°C° 0.2 mm 3 m/S 763 mmHg 96%
    22:00 -2°C° 0.1 mm 3 m/S 763 mmHg 95%
    23:00 -2°C° 0.1 mm 3 m/S 762 mmHg 95%

    25 Februar, Montag

    Zeit Temperatur Niederschläge Wind Luftdruck Luftfeuchtigkeit
    00:00 -2°C° 0.1 mm 3 m/S 762 mmHg 95%
    01:00 -2°C° 0.1 mm 3 m/S 762 mmHg 95%
    02:00 -2°C° 0.1 mm 3 m/S 762 mmHg 95%
    03:00 -2°C° 0.1 mm 3 m/S 762 mmHg 95%
    04:00 -2°C° 0.1 mm 3 m/S 762 mmHg 95%
    05:00 -2°C° 0.1 mm 3 m/S 762 mmHg 96%
    06:00 -1°C° 0.1 mm 2 m/S 762 mmHg 96%
    07:00 -1°C° 0.1 mm 2 m/S 762 mmHg 97%
    08:00 -1°C° 0.1 mm 2 m/S 762 mmHg 98%
    09:00 -1°C° 0.1 mm 2 m/S 762 mmHg 99%
    10:00 +1°C° 0.4 mm 2 m/S 761 mmHg 99%
    11:00 +1°C° 0.4 mm 2 m/S 761 mmHg 99%
    12:00 +1°C° 0.4 mm 2 m/S 761 mmHg 99%
    13:00 +2°C° 0 mm 2 m/S 760 mmHg 99%
    14:00 +2°C° 0 mm 2 m/S 760 mmHg 99%
    15:00 +3°C° 0 mm 1 m/S 759 mmHg 99%
    16:00 +2°C° 0 mm 2 m/S 758 mmHg 99%
    17:00 +2°C° 0 mm 2 m/S 758 mmHg 99%
    18:00 +2°C° 0 mm 2 m/S 757 mmHg 99%
    19:00 +2°C° 0 mm 2 m/S 757 mmHg 99%
    20:00 +1°C° 0 mm 2 m/S 756 mmHg 99%
    21:00 +1°C° 0 mm 2 m/S 755 mmHg 98%
    22:00 +1°C° 0.1 mm 2 m/S 755 mmHg 98%
    23:00 +1°C° 0.1 mm 2 m/S 754 mmHg 98%
    Mehr zeigen